Wind_Speed
11 11 11 10 10 9 9 9 10 9 9 10 10 10 10 9 9 9 9 8 8 7 6 6 6 6 6 6 7 7 8 8 8 8 9 9 9 10 11 11 12 12 13 13 14 14 14 15 15
12 12 11 11 10 9 9 9 10 9 9 9 10 10 10 9 9 9 9 8 8 7 6 6 5 6 6 7 7 8 8 8 8 8 9 9 10 11 12 12 13 13 13 14 15 15 16 16 17
14 13 12 11 10 10 9 10 10 9 9 9 9 10 10 10 9 9 8 8 8 7 6 6 6 7 7 7 7 7 7 8 8 9 9 10 11 12 12 13 13 14 15 16 16 17 17 18 18
16 16 14 13 12 10 10 10 10 9 9 9 9 9 9 9 9 9 8 8 8 7 7 6 6 6 7 7 7 7 7 8 8 9 10 10 12 12 13 13 14 16 16 17 18 18 19 19 20
19 18 17 15 13 12 12 11 10 10 10 9 9 9 9 9 9 8 8 8 7 7 7 6 6 6 6 7 7 8 8 9 10 10 11 12 13 13 14 15 16 17 18 19 19 19 20 21 21
21 20 19 17 15 14 13 13 12 11 11 10 10 10 9 9 9 8 8 7 7 7 7 7 7 7 7 8 8 9 10 11 11 12 12 13 14 15 16 17 18 19 20 20 21 21 22 22 23
24 23 21 19 18 17 16 15 14 13 12 11 11 11 10 10 10 9 9 8 8 8 8 8 8 8 9 9 10 11 11 12 13 13 14 15 16 17 18 19 20 21 21 22 22 23 23 24 24
26 26 24 22 20 19 18 17 16 15 14 13 12 12 12 11 11 11 11 10 10 9 9 9 9 10 10 11 12 12 13 13 14 15 16 17 18 19 20 21 21 22 23 23 24 24 25 25 25
29 28 26 23 22 21 20 19 18 17 16 15 14 13 13 13 13 12 12 12 11 11 11 11 11 11 12 12 13 14 14 15 16 17 18 19 20 20 21 22 23 23 24 25 25 26 26 26 27
31 30 27 25 24 23 23 22 21 19 18 17 16 15 15 14 14 14 13 13 13 13 13 13 13 14 14 15 15 16 17 17 18 19 20 21 22 22 23 24 24 25 25 26 26 27 27 28 29
33 31 29 28 27 26 25 24 23 22 20 19 18 17 16 16 15 15 15 15 15 15 15 16 16 16 16 17 17 18 19 19 20 21 22 23 23 24 25 25 26 27 27 28 28 28 29 30 30
35 33 32 31 30 29 28 27 26 24 22 22 20 19 18 17 17 17 17 17 17 17 17 18 18 18 18 18 19 20 21 21 22 23 24 24 25 26 27 27 28 28 28 29 29 30 31 31 32
38 36 34 33 33 32 30 29 28 26 24 24 23 21 20 20 19 18 18 18 19 19 19 19 20 20 20 21 21 22 22 23 24 25 26 26 27 28 28 29 29 29 30 30 30 31 32 32 33
39 38 37 36 35 34 33 31 30 27 27 26 25 24 23 22 21 20 20 20 20 21 21 21 21 22 23 23 24 24 25 25 26 27 27 28 29 29 29 29 30 30 31 31 32 33 33 34 34
42 41 40 38 37 35 35 34 31 29 30 28 27 26 25 24 23 22 22 22 22 22 22 23 23 24 24 25 26 26 27 28 28 28 29 29 29 30 30 30 31 31 32 33 34 34 35 35 35
45 44 42 39 39 37 38 34 31 32 32 30 29 28 27 26 25 25 24 24 23 23 24 24 25 25 26 27 27 28 29 29 30 30 30 30 30 31 31 32 33 33 34 34 34 35 36 36 36
48 46 43 41 41 40 39 36 33 34 33 32 31 30 29 28 27 26 26 25 25 25 26 26 26 26 27 28 29 29 30 31 31 31 31 31 31 32 33 33 34 34 35 35 36 36 37 37 38
48 46 44 43 42 42 41 38 36 36 35 34 33 32 30 29 28 28 27 27 27 27 27 27 27 28 29 30 30 31 31 32 32 32 32 32 32 33 34 34 35 35 35 36 37 38 38 38 39
48 47 45 43 43 43 43 41 39 38 37 36 34 33 32 31 30 30 29 29 29 29 29 29 29 29 30 31 31 32 32 32 32 32 32 33 33 34 35 35 36 36 36 37 38 39 39 39 39
49 48 46 45 44 45 45 43 42 40 39 37 36 35 34 33 32 32 32 31 31 30 30 30 31 31 32 32 32 32 32 33 33 33 34 34 35 35 36 36 36 37 37 38 38 39 39 40 40
50 48 46 45 45 46 46 46 44 41 40 39 38 36 35 34 34 34 33 32 32 32 31 32 32 32 32 32 33 33 33 33 33 34 35 35 36 36 36 36 37 37 38 38 39 40 40 40 40
49 47 46 45 46 46 47 48 44 42 41 40 38 37 36 36 35 34 34 33 33 33 33 33 33 33 33 33 33 34 34 34 34 35 35 36 36 36 36 37 37 37 38 39 40 40 40 40 40
48 46 47 47 47 48 47 49 45 43 41 39 37 37 36 36 36 35 35 34 34 34 34 34 34 34 34 34 34 34 35 35 35 36 36 36 37 37 37 37 37 38 39 39 40 40 40 40 40
48 47 47 47 48 50 47 48 47 42 39 37 37 37 36 36 36 35 35 35 35 35 34 34 33 34 34 34 34 35 35 35 35 36 36 36 37 37 37 37 38 38 39 39 40 40 40 40 41
49 47 47 48 50 50 46 48 47 39 37 36 36 37 37 36 35 35 35 35 35 34 34 33 33 33 34 34 35 35 35 35 35 36 36 36 37 37 37 38 38 39 39 39 40 40 40 41 41
49 48 48 49 49 47 47 48 44 38 36 35 35 35 36 35 35 35 34 34 34 34 33 33 33 33 33 34 34 34 34 35 35 36 36 36 36 37 38 38 38 39 39 39 40 40 41 41 41
50 49 47 47 47 47 47 45 42 38 35 34 34 34 34 34 33 34 33 33 33 33 33 33 33 33 33 34 34 33 34 34 35 35 35 35 36 37 38 38 38 38 39 40 40 40 41 41 42
51 49 49 49 49 48 47 45 41 37 34 33 33 33 33 33 33 33 33 33 33 33 32 33 33 33 34 33 33 33 34 34 34 35 35 36 36 37 37 38 38 39 40 40 41 40 41 41 42
51 52 51 50 50 49 47 43 38 34 32 32 32 32 33 33 33 32 32 32 32 32 32 32 33 33 33 33 33 33 34 34 35 35 35 36 36 36 36 37 38 39 39 40 40 40 41 42 42
51 51 51 51 50 49 47 43 37 34 32 30 31 31 32 32 33 32 32 32 32 32 32 32 33 33 33 33 33 33 34 34 34 35 35 35 36 36 37 38 38 39 39 40 40 41 41 42 43
Wind_Direction
224 224 221 218 216 212 210 212 214 215 213 213 215 215 215 214 214 212 212 213 216 219 225 235 245 254 261 267 270 275 280 285 289 293 298 302 305 307 308 308 308 307 305 304 304 304 303 301 300
225 225 221 217 215 210 209 213 214 214 214 215 216 214 213 212 213 212 213 216 219 224 230 238 249 260 269 275 277 280 284 287 291 296 299 303 305 305 306 307 307 306 305 304 303 302 301 299 298
226 225 222 219 216 212 211 215 214 213 214 216 217 216 215 213 213 213 215 219 223 228 237 246 255 263 270 276 278 284 288 292 295 299 301 303 304 305 307 307 307 306 305 304 302 300 298 297 296
227 225 224 222 220 217 216 217 216 216 215 214 214 213 212 211 211 214 217 223 227 233 240 248 255 262 270 276 281 287 292 296 300 301 302 303 304 305 305 306 306 306 305 303 301 300 298 297 297
229 228 227 224 223 221 220 221 220 221 220 216 214 214 212 211 211 214 218 224 229 234 241 249 257 265 271 277 283 289 292 295 298 300 302 303 303 303 302 303 304 304 303 302 301 299 298 297 297
232 229 228 225 224 224 223 224 224 224 224 219 215 218 218 217 215 217 220 224 232 239 247 255 264 270 274 279 284 288 291 293 295 297 300 301 301 301 301 302 303 302 302 301 300 299 298 298 297
232 231 229 226 224 224 226 226 226 226 227 224 220 221 224 225 224 225 226 231 235 241 250 259 266 272 277 281 284 287 289 292 294 295 297 299 300 300 300 300 301 301 301 300 299 298 297 297 297
234 233 230 229 227 226 228 228 227 228 229 227 225 224 227 230 232 233 235 237 241 246 253 261 268 274 279 284 285 287 289 291 292 293 295 297 298 299 299 299 300 300 299 299 298 297 297 297 296
234 234 232 231 230 229 231 231 231 230 230 229 227 225 228 232 237 240 241 244 247 251 257 263 270 276 280 284 285 286 288 290 291 293 294 296 296 296 297 298 299 298 298 298 297 297 297 297 296
235 236 234 233 231 230 231 233 233 231 231 230 229 228 230 233 238 242 246 249 252 255 260 265 270 276 280 283 285 286 288 290 291 292 293 294 295 295 296 297 297 297 296 296 296 296 297 297 297
236 237 235 234 233 232 232 233 234 233 233 233 232 232 232 236 240 244 249 252 255 259 263 267 271 276 280 283 285 286 288 289 290 291 292 293 293 293 294 296 296 295 295 295 295 295 296 296 296
237 236 235 235 234 233 233 234 235 235 235 235 234 234 234 237 241 246 251 255 258 262 265 268 271 274 278 281 283 285 287 289 290 291 292 292 292 292 294 294 294 294 295 295 295 296 296 296 296
236 236 235 235 234 234 234 235 235 235 236 237 237 238 238 239 242 247 252 257 261 265 268 271 272 274 277 280 283 285 287 288 289 290 291 291 291 292 293 292 293 294 294 295 295 296 296 296 297
236 236 236 235 235 235 235 235 236 236 237 238 240 241 242 243 245 249 254 259 263 266 269 272 274 276 278 280 282 284 286 288 289 290 291 290 291 291 292 292 292 293 294 294 295 296 296 296 297
236 236 236 237 237 237 237 236 236 238 238 239 240 242 244 245 247 251 255 259 263 266 269 272 274 276 279 281 283 285 286 288 289 290 290 290 290 290 290 291 292 293 293 294 294 295 295 296 296
235 236 237 237 238 238 239 237 237 238 240 240 241 243 245 247 250 253 256 260 263 265 269 271 274 277 279 282 283 285 286 288 289 289 289 289 289 289 290 291 292 292 292 293 293 294 294 295 296
234 236 237 237 238 239 240 239 238 239 240 242 243 244 246 249 251 254 257 260 263 266 269 272 274 277 279 282 284 285 286 288 289 289 288 288 288 289 290 291 292 292 292 292 293 293 294 295 296
236 237 238 238 239 240 241 240 238 239 241 242 243 245 247 250 253 255 258 260 263 266 269 272 274 277 279 282 284 285 286 287 287 287 287 287 288 289 290 291 291 291 292 292 293 293 294 295 295
236 237 238 238 238 239 240 240 239 240 241 242 244 246 249 251 254 256 258 261 264 266 269 272 275 277 280 282 284 285 285 286 286 286 286 287 288 289 290 290 291 291 291 292 293 293 294 295 295
235 236 237 237 238 239 239 240 240 241 242 243 245 247 249 251 254 257 259 262 264 267 269 272 274 277 280 281 282 283 284 285 285 286 286 287 288 288 289 290 290 290 291 292 292 293 294 295 296
234 236 237 238 239 241 241 240 240 241 243 244 246 248 250 252 254 257 259 262 264 266 269 271 274 277 279 281 281 282 283 284 285 286 287 288 289 289 289 290 290 291 291 292 292 293 294 295 296
234 235 237 238 240 241 243 243 239 241 243 244 246 248 250 253 255 257 259 261 263 266 268 271 274 276 278 279 280 281 282 283 284 285 286 287 288 289 289 290 291 291 291 292 292 294 295 296 297
233 234 236 238 240 242 242 244 239 240 242 244 247 249 250 252 255 257 260 262 264 266 268 271 273 274 276 277 279 280 281 282 283 285 286 287 288 288 289 290 291 291 292 293 294 295 296 296 297
231 232 234 236 239 241 240 244 241 238 241 243 246 249 251 253 255 257 260 262 264 266 268 270 272 273 275 277 278 279 281 282 283 284 285 286 287 288 289 290 291 292 293 294 294 295 296 296 297
228 229 232 234 236 239 239 242 243 238 239 242 245 248 251 253 255 257 259 261 263 266 268 269 271 272 274 276 278 279 281 282 283 284 285 285 287 288 289 290 291 292 293 295 295 296 296 297 297
228 230 233 236 238 240 240 241 242 239 239 241 244 247 250 253 255 256 258 260 263 265 267 269 271 272 274 276 277 279 281 282 283 284 285 286 287 288 289 290 292 292 293 294 295 296 297 297 297
227 229 233 236 239 240 240 240 240 239 239 240 243 246 249 252 253 255 258 261 263 265 267 269 270 272 274 276 278 279 281 283 284 285 286 286 287 288 289 290 291 292 293 294 295 296 296 297 297
229 229 231 233 236 238 239 239 238 237 240 242 243 245 248 251 254 256 258 260 262 264 266 268 270 272 274 276 278 280 282 283 284 285 286 287 288 289 290 291 291 292 293 294 295 296 297 297 298
228 228 230 233 236 238 239 238 238 238 240 244 245 246 248 251 253 256 258 260 262 264 266 268 270 272 275 277 279 281 282 283 284 285 285 286 288 289 290 291 291 292 293 294 295 296 297 298 298
231 232 232 233 235 238 240 238 237 238 241 244 246 247 249 251 252 255 257 260 261 263 265 268 271 273 275 277 279 281 282 283 284 285 285 287 288 289 290 291 292 293 293 294 295 296 297 298 298
Height
5844 5845 5847 5849 5851 5852 5853 5854 5855 5855 5857 5858 5858 5859 5861 5863 5864 5868 5867 5866 5867 5868 5869 5869 5870 5870 5870 5870 5871 5871 5871 5871 5870 5870 5870 5870 5870 5869 5869 5869 5868 5868 5867 5866 5866 5865 5864 5864 5863
5843 5844 5846 5848 5849 5851 5852 5853 5854 5855 5856 5856 5857 5858 5860 5861 5862 5864 5864 5865 5866 5867 5867 5868 5868 5868 5869 5869 5869 5869 5869 5869 5869 5869 5869 5868 5868 5868 5867 5867 5866 5866 5865 5864 5863 5863 5862 5861 5860
5841 5842 5845 5846 5848 5849 5851 5852 5853 5853 5854 5855 5856 5857 5859 5860 5861 5862 5863 5864 5865 5865 5866 5866 5867 5867 5867 5867 5868 5868 5867 5867 5867 5867 5867 5866 5866 5866 5865 5865 5864 5863 5863 5862 5861 5860 5859 5858 5857
5839 5841 5843 5845 5846 5848 5849 5850 5851 5852 5853 5854 5855 5856 5857 5859 5860 5861 5862 5862 5863 5864 5864 5865 5865 5866 5866 5866 5866 5866 5866 5866 5865 5865 5865 5864 5864 5864 5863 5862 5862 5861 5860 5859 5858 5857 5856 5855 5854
5836 5838 5840 5842 5844 5846 5847 5848 5850 5851 5852 5853 5854 5855 5856 5857 5858 5859 5860 5861 5862 5863 5863 5863 5864 5864 5864 5864 5864 5864 5864 5864 5864 5863 5863 5862 5862 5861 5861 5860 5859 5858 5857 5856 5855 5854 5853 5851 5850
5833 5835 5838 5840 5842 5844 5845 5846 5848 5849 5850 5851 5852 5853 5855 5856 5857 5858 5859 5860 5860 5861 5862 5862 5862 5863 5863 5863 5863 5863 5862 5862 5862 5861 5861 5860 5859 5859 5858 5857 5856 5855 5854 5853 5851 5850 5849 5847 5846
5830 5831 5834 5836 5839 5841 5843 5844 5846 5847 5848 5849 5850 5851 5853 5854 5855 5856 5857 5858 5859 5859 5860 5860 5861 5861 5861 5861 5861 5860 5860 5860 5859 5859 5858 5857 5857 5856 5855 5854 5853 5851 5850 5849 5847 5846 5844 5843 5842
5824 5827 5829 5833 5835 5838 5840 5841 5843 5845 5846 5847 5848 5850 5851 5852 5853 5854 5855 5856 5857 5857 5858 5858 5858 5858 5858 5858 5858 5858 5857 5857 5856 5856 5855 5854 5853 5852 5851 5850 5849 5847 5846 5844 5843 5841 5840 5838 5837
5819 5823 5825 5829 5832 5834 5836 5838 5840 5841 5843 5844 5846 5847 5848 5849 5850 5851 5853 5853 5854 5855 5855 5856 5856 5856 5856 5855 5855 5855 5854 5854 5853 5853 5852 5851 5850 5849 5847 5846 5844 5843 5841 5840 5838 5837 5835 5833 5832
5813 5817 5822 5825 5827 5829 5831 5833 5835 5838 5840 5841 5843 5844 5845 5846 5848 5849 5850 5851 5851 5852 5852 5853 5853 5853 5852 5852 5852 5851 5851 5850 5850 5849 5848 5847 5846 5844 5843 5842 5840 5838 5837 5835 5833 5832 5830 5828 5826
5808 5812 5816 5818 5821 5823 5826 5828 5831 5833 5836 5838 5840 5841 5842 5843 5844 5845 5846 5847 5848 5848 5849 5849 5849 5849 5849 5849 5848 5848 5847 5846 5845 5845 5844 5842 5841 5840 5838 5837 5835 5834 5832 5830 5828 5826 5824 5823 5821
5802 5806 5809 5812 5815 5818 5820 5823 5826 5829 5832 5833 5835 5837 5839 5840 5841 5842 5843 5844 5844 5845 5845 5845 5845 5845 5845 5845 5844 5843 5843 5842 5841 5840 5839 5838 5836 5835 5833 5832 5830 5828 5826 5825 5823 5821 5819 5817 5814
5794 5799 5802 5805 5808 5811 5814 5817 5820 5823 5826 5828 5830 5833 5835 5836 5837 5838 5839 5840 5840 5841 5841 5841 5841 5841 5841 5840 5840 5839 5838 5837 5836 5835 5834 5832 5831 5829 5828 5826 5824 5822 5820 5819 5816 5814 5812 5810 5808
5787 5791 5794 5797 5801 5805 5808 5811 5814 5819 5820 5823 5825 5828 5830 5832 5833 5834 5835 5835 5836 5836 5837 5837 5837 5836 5836 5836 5835 5834 5833 5832 5831 5830 5828 5827 5825 5823 5822 5820 5818 5816 5814 5812 5810 5808 5806 5804 5801
5778 5783 5786 5791 5794 5798 5801 5804 5809 5812 5814 5817 5820 5822 5824 5826 5828 5829 5830 5831 5831 5832 5832 5832 5832 5832 5831 5830 5830 5829 5828 5827 5825 5824 5822 5821 5819 5817 5816 5814 5812 5810 5808 5806 5804 5801 5799 5797 5795
5769 5773 5779 5785 5787 5790 5794 5799 5804 5805 5807 5810 5813 5816 5818 5820 5822 5824 5825 5826 5826 5826 5827 5827 5827 5826 5826 5825 5824 5823 5822 5821 5819 5818 5817 5815 5813 5811 5810 5808 5806 5804 5801 5799 5797 5795 5793 5790 5788
5759 5765 5771 5777 5780 5782 5785 5791 5797 5798 5800 5803 5807 5809 5812 5814 5816 5818 5819 5820 5820 5821 5821 5821 5821 5821 5820 5819 5818 5817 5816 5815 5813 5812 5810 5809 5807 5805 5803 5801 5799 5797 5795 5792 5790 5788 5785 5783 5781
5753 5758 5763 5768 5772 5774 5777 5783 5788 5790 5793 5796 5800 5803 5805 5808 5810 5811 5813 5814 5814 5815 5815 5815 5815 5815 5814 5813 5812 5811 5810 5808 5807 5805 5804 5802 5800 5799 5797 5795 5792 5790 5788 5785 5783 5781 5778 5776 5773
5744 5749 5754 5760 5763 5765 5768 5773 5778 5781 5784 5789 5792 5796 5799 5801 5803 5804 5806 5807 5808 5808 5809 5809 5809 5808 5807 5807 5806 5805 5803 5802 5800 5799 5797 5796 5794 5792 5789 5787 5785 5783 5781 5778 5776 5773 5771 5768 5765
5733 5739 5745 5750 5753 5756 5759 5764 5769 5773 5777 5781 5785 5788 5791 5794 5796 5797 5799 5800 5801 5801 5802 5802 5802 5802 5801 5800 5799 5798 5797 5795 5794 5792 5790 5788 5786 5784 5782 5780 5778 5776 5773 5771 5768 5766 5763 5760 5758
5724 5731 5737 5741 5744 5746 5750 5754 5760 5765 5769 5773 5777 5781 5784 5786 5788 5790 5791 5793 5794 5794 5795 5795 5795 5795 5794 5793 5792 5791 5789 5788 5787 5785 5783 5781 5779 5777 5775 5773 5770 5768 5766 5763 5761 5758 5755 5753 5750
5715 5723 5728 5731 5733 5737 5741 5744 5753 5757 5761 5765 5770 5773 5776 5779 5781 5782 5784 5785 5786 5787 5787 5788 5788 5787 5787 5786 5785 5784 5783 5782 5780 5778 5776 5774 5772 5769 5767 5765 5763 5761 5758 5756 5753 5750 5747 5745 5742
5708 5714 5717 5720 5723 5727 5731 5734 5744 5749 5754 5759 5763 5766 5768 5771 5773 5775 5776 5777 5778 5779 5779 5780 5780 5780 5779 5778 5778 5777 5775 5774 5772 5770 5768 5766 5764 5762 5760 5757 5755 5752 5750 5748 5745 5742 5739 5736 5734
5697 5702 5706 5709 5712 5716 5724 5725 5733 5743 5748 5752 5755 5757 5760 5762 5765 5766 5768 5769 5770 5771 5771 5772 5772 5772 5771 5771 5770 5769 5768 5766 5764 5762 5760 5758 5756 5754 5752 5750 5747 5745 5742 5740 5737 5734 5731 5728 5725
5685 5691 5695 5698 5700 5707 5716 5716 5724 5737 5741 5744 5747 5749 5751 5754 5756 5758 5759 5761 5762 5763 5763 5764 5764 5764 5763 5763 5762 5761 5760 5758 5756 5755 5753 5751 5748 5746 5744 5742 5739 5737 5734 5731 5729 5726 5723 5720 5717
5677 5682 5687 5691 5695 5701 5705 5708 5719 5728 5733 5736 5739 5741 5743 5745 5748 5750 5751 5753 5754 5755 5755 5756 5756 5756 5755 5755 5754 5753 5751 5750 5748 5747 5745 5743 5740 5738 5736 5733 5731 5728 5726 5723 5721 5718 5715 5711 5708
5667 5672 5679 5683 5686 5690 5694 5702 5711 5719 5724 5728 5731 5733 5735 5737 5739 5741 5743 5744 5745 5746 5747 5748 5748 5748 5747 5747 5746 5745 5743 5742 5740 5738 5736 5734 5732 5730 5728 5725 5723 5720 5718 5715 5712 5709 5706 5703 5699
5657 5664 5668 5671 5676 5680 5686 5694 5704 5711 5716 5719 5722 5725 5727 5729 5731 5733 5735 5736 5737 5738 5739 5739 5739 5739 5739 5738 5738 5736 5735 5734 5732 5730 5728 5726 5724 5722 5720 5717 5715 5712 5710 5707 5704 5701 5697 5694 5690
5647 5652 5657 5663 5668 5673 5679 5690 5698 5704 5708 5711 5714 5716 5719 5721 5723 5725 5726 5728 5729 5730 5730 5731 5731 5731 5731 5730 5729 5728 5727 5725 5724 5722 5720 5718 5716 5714 5712 5709 5707 5704 5701 5698 5695 5692 5688 5685 5681
5637 5643 5649 5654 5660 5665 5671 5683 5690 5696 5699 5703 5705 5708 5710 5712 5715 5717 5718 5719 5720 5721 5722 5723 5723 5723 5722 5722 5721 5720 5719 5717 5715 5714 5712 5710 5708 5706 5703 5701 5698 5695 5693 5690 5687 5683 5680 5676 5672